SL-8 R/B, 33066

Orbit data source: Space-Track

SL-8 R/B, 33066 is space debris in LEO originally from a launch on Thu, 19 Jun 2008 UTC launched from the Kapustin Yar Missile And Space Complex (KYMTR). Debris objects in space refer to the collection of defunct objects orbiting the Earth. Examples of debris include non-operational satellites, rocket bodies, and fragments generated from explosions, collisions, or faulty payload assembly.

Loading next visibility...
Identifier
33066, 2008-031G
Orbit
LEO
Country
Flag of CISCIS
Related business
Manufacturer
Polyot
Mission
Spacecraft
Bus & Motor
S3, Unknown motor
Mass
~1,761 kg wet, 1,434 kg dry
Launch date (UTC)
2008-06-19 (18 years ago)
Launch vehicle
Unknown
Launch site
Kapustin Yar Missile And Space Complex (KYMTR)
Object type
Payload
Rocket body
Debris
Shape & HBR
Cyl, 2.1 m
Radar Cross Section
10.179 m², Large (>1 m²)

Expand to show TLE details & history
Last TLE update: 15 hours ago

TLE from 15 hours ago
0 SL-8 R/B
1 33066U 08031G   26168.45804745  .00000150  00000-0  53994-4 0  9990
2 33066  48.4404 191.2799 0007178 347.5781  12.4953 14.73226465966454
Epoch: 2026-06-17T10:59Z
TLE epoch observation values (Epoch: 2026-06-17T10:59:35.299Z)
Latitude
-0.00005°
Longitude
120.66733°
Altitude
646.235 km
Speed
7.539 km/s
True Right ascension
12h 45m 07s
True Declination
0° 00' 00"
Sunlit
Object was in daylight at epoch
Visualization orbit readout
Latitude
Unknown
Longitude
Unknown
Altitude
Unknown
Speed
Unknown
Apparent Right ascension
Unknown
Apparent Declination
Unknown
Sunlit
N/A
Visualization observer readout
Local Sidereal Time
13:12:08
Azimuth
Unknown
Elevation
Unknown
Doppler factor
Unknown
Orbital elements
Apogee altitude
656.841 km
Perigee altitude
646.749 km
Semi-major axis
7,029.932 km
Eccentricity
0.00072
Inclination
48.4404°
RAAN
191.2799°
Arg. of periapsis
347.5781°
True anomaly
12.51311°
Mean anomaly
12.4953°
Eccentric anomaly
12.5042°
Mean motion
3.68228 °/min
Orbital period
97.77 mins
BSTAR
0.000053994
Loading maneuver chart data...
Computing Atmospheric mass density...
Loading historical data...
Loading historical data...
Loading historical data...
Loading historical data...
Loading historical data...
Loading historical data...
Loading historical data...

Documentation

Showing up to 5 results
|